Knox, IN

8:45 AM CDT on August 16, 2017 (GMT -0500)
Starke County

Weather History for KOXI - May, 2013

Change the Weather History Date:

Wednesday, May 29, 2013

  Actual Average (KRCR) Record (KRCR)
Temperature  
Mean Temperature 75 °F -  
Max Temperature 83 °F 75 °F 87 °F (2016)
Min Temperature 67 °F 52 °F 60 °F (2014)
Cooling Degree Days 10    
Growing Degree Days 25 (Base 50)    
Moisture  
Dew Point 66 °F    
Average Humidity 75    
Maximum Humidity 98    
Minimum Humidity 54    
Precipitation  
Precipitation 0.00 in - - ()
Sea Level Pressure  
Sea Level Pressure 29.95 in    
Wind  
Wind Speed 11 mph (SSW)    
Max Wind Speed 20 mph    
Max Gust Speed 25 mph    
Visibility 10 miles    
Events      
Averages and records for this station are not official NWS values.
T = Trace of Precipitation, MM = Missing Value Source: NWS Daily Summary

Daily Weather History Graph

Daily Weather History Graph

Search for Another Location

Airport or City:

Trip Planner

Search our weather history database for the weather conditions in past years. The results will help you decide how hot, cold, wet, or windy it might be!

Date:

Astronomy

May. 29, 2013 Rise Set
Actual Time 5:17 AM CDT 8:11 PM CDT
Civil Twilight 4:44 AM CDT 8:44 PM CDT
Nautical Twilight 4:02 AM CDT 9:26 PM CDT
Astronomical Twilight 3:14 AM CDT 10:14 PM CDT
Moon No Moon Rise 10:17 AM CDT (5/29)
Length of Visible Light 16h 00m
Length of Day
14h 54m
Waning Gibbous, 73% of the Moon is Illuminated
May 29
Waning Gibbous
May 31
Last Quarter
Jun 8
New
Jun 16
First Quarter
Jun 23
Full

Hourly Weather History & Observations

Time (CDT) Temp. Heat Index Dew Point Humidity Pressure Visibility Wind Dir Wind Speed Gust Speed Precip Events Conditions
1:15 AM - - - N/A% - - North - - N/A   Unknown
1:35 AM - - - N/A% - - North - - N/A   Unknown
1:55 AM - - - N/A% - - North - - N/A   Unknown
2:15 AM - - - N/A% - - North - - N/A   Unknown
2:35 AM - - - N/A% - - North - - N/A   Unknown
2:55 AM - - - N/A% - - North - - N/A   Unknown
3:15 AM - - - N/A% - - North - - N/A   Unknown
3:35 AM - - - N/A% - - North - - N/A   Unknown
3:55 AM - - - N/A% - - North - - N/A   Unknown
4:15 AM - - - N/A% - - North - - N/A   Unknown
4:35 AM - - - N/A% 29.86 in 10.0 mi South 11.5 mph - N/A   Unknown
4:55 AM 67.5 °F - 66.7 °F 98% 29.87 in 10.0 mi South 11.5 mph - N/A   Mostly Cloudy
5:15 AM 67.8 °F - 67.1 °F 98% 29.86 in 10.0 mi South 11.5 mph - N/A   Scattered Clouds
5:35 AM 68.0 °F - 66.7 °F 96% 29.89 in 10.0 mi SW 12.7 mph 18.4 mph N/A   Clear
5:55 AM 68.0 °F - 66.6 °F 95% 29.92 in 10.0 mi SW 10.4 mph - N/A   Clear
6:15 AM 67.6 °F - 66.4 °F 96% 29.95 in 10.0 mi WSW 9.2 mph - N/A   Clear
6:35 AM 67.5 °F - 66.4 °F 96% 29.96 in 10.0 mi WSW 11.5 mph - N/A   Clear
6:55 AM 67.6 °F - 66.4 °F 96% 29.96 in 10.0 mi WSW 10.4 mph - N/A   Clear
7:15 AM 67.6 °F - 65.1 °F 92% 29.94 in 10.0 mi SW 8.1 mph - N/A   Clear
7:35 AM 67.5 °F - 64.8 °F 91% 29.93 in 10.0 mi South 6.9 mph - N/A   Clear
7:55 AM 67.6 °F - 64.9 °F 91% 29.95 in 10.0 mi SSW 3.5 mph - N/A   Clear
8:15 AM 68.2 °F - 65.3 °F 90% 29.96 in 10.0 mi South 10.4 mph - N/A   Clear
8:35 AM 68.5 °F - 64.9 °F 88% 29.96 in 10.0 mi SSW 9.2 mph 17.3 mph N/A   Clear
8:55 AM 69.3 °F - 65.3 °F 87% 29.96 in 10.0 mi SSW 6.9 mph - N/A   Clear
9:15 AM 70.7 °F - 64.9 °F 82% 29.96 in 10.0 mi SSW 9.2 mph - N/A   Clear
9:35 AM 72.3 °F - 65.1 °F 78% 29.97 in 10.0 mi SSW 12.7 mph - N/A   Clear
9:55 AM 73.2 °F - 64.9 °F 75% 29.97 in 10.0 mi SSW 12.7 mph 16.1 mph N/A   Clear
10:15 AM 73.9 °F - 65.3 °F 74% 29.97 in 10.0 mi SW 10.4 mph - N/A   Clear
10:35 AM 75.2 °F - 66.7 °F 75% 29.98 in 10.0 mi SW 16.1 mph 23.0 mph N/A   Mostly Cloudy
10:55 AM 74.8 °F - 66.9 °F 76% 29.98 in 10.0 mi SW 11.5 mph - N/A   Overcast
11:15 AM 75.6 °F - 68.2 °F 78% 29.98 in 10.0 mi SSW 15.0 mph 18.4 mph N/A   Mostly Cloudy
11:35 AM 75.0 °F - 68.2 °F 79% 29.98 in 10.0 mi SSW 12.7 mph - N/A   Mostly Cloudy
11:55 AM 74.7 °F - 68.4 °F 81% 29.98 in 10.0 mi SSW 11.5 mph - N/A   Mostly Cloudy
12:15 PM 74.1 °F - 68.4 °F 82% 29.98 in 10.0 mi SW 11.5 mph - N/A   Overcast
12:35 PM 73.9 °F - 68.7 °F 84% 29.98 in 10.0 mi SSW 6.9 mph - N/A   Overcast
12:55 PM 74.8 °F - 68.9 °F 82% 29.98 in 10.0 mi SSW 9.2 mph - N/A   Overcast
1:15 PM 77.4 °F - 69.4 °F 76% 29.97 in 10.0 mi SSW 11.5 mph - N/A   Mostly Cloudy
1:35 PM 79.5 °F - 69.6 °F 72% 29.97 in 10.0 mi SW 13.8 mph - N/A   Mostly Cloudy
1:55 PM 79.9 °F - 70.0 °F 72% 29.97 in 10.0 mi SW 11.5 mph 16.1 mph N/A   Mostly Cloudy
2:15 PM 79.9 °F - 70.0 °F 72% 29.96 in 10.0 mi SW 11.5 mph - N/A   Mostly Cloudy
2:35 PM 80.4 °F 83.5 °F 69.3 °F 69% 29.96 in 10.0 mi SW 15.0 mph 25.3 mph N/A   Mostly Cloudy
2:55 PM 82.2 °F 86.0 °F 69.6 °F 66% 29.96 in 10.0 mi SW 19.6 mph 23.0 mph N/A   Scattered Clouds
3:15 PM 82.6 °F 85.3 °F 67.6 °F 60% 29.95 in 10.0 mi SSW 16.1 mph 24.2 mph N/A   Scattered Clouds
3:35 PM 82.8 °F 85.8 °F 68.2 °F 61% 29.95 in 10.0 mi SW 16.1 mph 23.0 mph N/A   Scattered Clouds
3:55 PM 82.0 °F 84.5 °F 67.1 °F 60% 29.95 in 10.0 mi SSW 15.0 mph - N/A   Mostly Cloudy
4:15 PM 81.5 °F 83.7 °F 66.2 °F 60% 29.95 in 10.0 mi SW 12.7 mph 17.3 mph N/A   Mostly Cloudy
4:35 PM 82.6 °F 84.7 °F 65.8 °F 57% 29.95 in 10.0 mi SSW 15.0 mph - N/A   Scattered Clouds
4:55 PM 82.9 °F 84.6 °F 64.9 °F 54% 29.95 in 10.0 mi SSW 13.8 mph - N/A   Scattered Clouds
5:15 PM 83.1 °F 85.0 °F 65.3 °F 55% 29.94 in 10.0 mi South 17.3 mph 23.0 mph N/A   Scattered Clouds
5:35 PM 82.2 °F 84.0 °F 64.9 °F 56% 29.94 in 10.0 mi South 10.4 mph - N/A   Scattered Clouds
5:55 PM 82.2 °F 83.8 °F 64.4 °F 55% 29.93 in 10.0 mi SSW 11.5 mph 15.0 mph N/A   Clear
6:15 PM 81.9 °F 83.4 °F 64.2 °F 55% 29.93 in 10.0 mi SSW 12.7 mph 16.1 mph N/A   Clear
6:35 PM 81.3 °F 82.9 °F 64.0 °F 56% 29.93 in 10.0 mi South 11.5 mph - N/A   Clear
6:55 PM 81.0 °F 82.6 °F 64.6 °F 57% 29.93 in 10.0 mi South 10.4 mph - N/A   Scattered Clouds
7:15 PM 80.1 °F 82.0 °F 65.3 °F 61% 29.93 in 10.0 mi South 9.2 mph - N/A   Scattered Clouds
7:35 PM 79.2 °F - 65.5 °F 63% 29.93 in 10.0 mi South 6.9 mph - N/A   Scattered Clouds
7:55 PM 78.3 °F - 66.0 °F 66% 29.93 in 10.0 mi South 8.1 mph - N/A   Scattered Clouds
8:15 PM 77.5 °F - 65.1 °F 65% 29.94 in 10.0 mi South 8.1 mph - N/A   Clear
8:35 PM 76.1 °F - 64.2 °F 67% 29.94 in 10.0 mi South 8.1 mph - N/A   Clear
8:55 PM 74.8 °F - 63.9 °F 69% 29.95 in 10.0 mi South 6.9 mph - N/A   Clear
9:15 PM 73.0 °F - 64.2 °F 74% 29.95 in 10.0 mi SSE 6.9 mph - N/A   Clear
9:35 PM 71.4 °F - 64.4 °F 78% 29.95 in 10.0 mi SSE 6.9 mph - N/A   Clear
9:55 PM 71.8 °F - 63.1 °F 74% 29.95 in 10.0 mi SSE 6.9 mph - N/A   Clear
10:15 PM 71.6 °F - 62.1 °F 72% 29.95 in 10.0 mi SSE 8.1 mph - N/A   Clear
10:35 PM 70.5 °F - 61.5 °F 73% 29.95 in 10.0 mi SSE 6.9 mph - N/A   Clear
10:55 PM 70.0 °F - 61.2 °F 73% 29.96 in 10.0 mi South 6.9 mph - N/A   Clear
11:15 PM 70.9 °F - 60.8 °F 70% 29.96 in 10.0 mi South 5.8 mph - N/A   Clear
11:35 PM 70.5 °F - 61.0 °F 72% 29.98 in 10.0 mi South 5.8 mph - N/A   Clear
11:55 PM 70.2 °F - 61.2 °F 73% 29.98 in 10.0 mi South 6.9 mph - N/A   Clear